{"data":{"norad_id":51752,"epoch":"2026-09-20T03:22:22.267200Z","epoch_age_seconds":82660,"freshness":"FRESH","line1":"1 51752U 22016AQ  26263.14053550  .00001277  00000+0  52923-4 0  9994","line2":"2 51752  53.1599 140.4240 0001354  82.6060 277.5095 15.31691994253276","mean_motion":15.31691994,"eccentricity":0.0001354,"inclination_deg":53.1599,"raan_deg":140.424,"arg_perigee_deg":82.606,"mean_anomaly_deg":277.5095,"bstar":5.2923e-5,"rev_number":25327,"period_min":94.013679358567,"perigee_km":469.83651962245,"apogee_km":471.69120197555,"semimajor_km":6848.900860799,"source":"CELESTRAK","updated_at":"2026-09-20T09:00:39.933974Z"}}